AAL2028 KLAX-KDFW

Flight info

Callsign AAL2028
Flight time 2h 34m
Altitude 33000
Route DOTSS2 CNERY BLH J169 TFD J50 SSO J4 INK GEEKY SOCKK4
Aircraft A321/M-SDE3FGHIRWY/LB1

Departure

Time 2026-05-07 20:41
Airport Los Angeles International Airport (KLAX)

Arrival

Time 2026-05-07 23:15
Airport Dallas Fort Worth International Airport (KDFW)
Time Latitude Longitude Altitude Speed Heading
2026-05-07 20:04 33.94211 -118.40927 93 ft 0 kts 264°
2026-05-07 20:28 33.94212 -118.40905 93 ft 4 kts 276°
2026-05-07 20:28 33.94205 -118.40874 93 ft 4 kts 302°
2026-05-07 20:29 33.94188 -118.40851 93 ft 4 kts 325°
2026-05-07 20:29 33.94165 -118.40834 94 ft 4 kts 329°
2026-05-07 20:29 33.94173 -118.40844 92 ft 4 kts 311°
2026-05-07 20:29 33.94179 -118.40871 93 ft 4 kts 262°
2026-05-07 20:30 33.94162 -118.40876 95 ft 4 kts 179°
2026-05-07 20:30 33.94143 -118.40862 94 ft 4 kts 129°
2026-05-07 20:30 33.94124 -118.40842 95 ft 4 kts 154°
2026-05-07 20:30 33.94103 -118.40837 94 ft 3 kts 173°
2026-05-07 20:31 33.94086 -118.40835 95 ft 4 kts 173°
2026-05-07 20:31 33.94059 -118.40831 93 ft 4 kts 173°
2026-05-07 20:31 33.94032 -118.40827 93 ft 4 kts 173°
2026-05-07 20:31 33.94005 -118.40823 93 ft 4 kts 173°
2026-05-07 20:32 33.93996 -118.40822 93 ft 0 kts 173°
2026-05-07 20:34 33.93995 -118.40822 93 ft 0 kts 173°
2026-05-07 20:34 33.93974 -118.40818 95 ft 6 kts 173°
2026-05-07 20:34 33.93925 -118.40811 93 ft 8 kts 173°
2026-05-07 20:34 33.93882 -118.40776 95 ft 8 kts 130°
2026-05-07 20:35 33.93840 -118.40735 93 ft 8 kts 152°
2026-05-07 20:35 33.93811 -118.40690 97 ft 7 kts 101°
2026-05-07 20:35 33.93818 -118.40596 94 ft 14 kts 82°
2026-05-07 20:35 33.93830 -118.40480 96 ft 14 kts 84°
2026-05-07 20:36 33.93845 -118.40337 95 ft 18 kts 82°
2026-05-07 20:36 33.93861 -118.40186 96 ft 18 kts 83°
2026-05-07 20:36 33.93876 -118.40036 96 ft 18 kts 83°
2026-05-07 20:36 33.93892 -118.39886 96 ft 18 kts 83°
2026-05-07 20:37 33.93906 -118.39730 95 ft 19 kts 83°
2026-05-07 20:37 33.93922 -118.39571 95 ft 19 kts 83°
2026-05-07 20:37 33.93939 -118.39411 97 ft 20 kts 83°
2026-05-07 20:37 33.93956 -118.39244 93 ft 20 kts 83°
2026-05-07 20:38 33.93973 -118.39076 94 ft 20 kts 83°
2026-05-07 20:38 33.93989 -118.38910 94 ft 20 kts 83°
2026-05-07 20:38 33.94006 -118.38744 94 ft 20 kts 83°
2026-05-07 20:38 33.94023 -118.38582 95 ft 19 kts 82°
2026-05-07 20:39 33.94041 -118.38422 96 ft 19 kts 82°
2026-05-07 20:39 33.94059 -118.38261 95 ft 20 kts 84°
2026-05-07 20:39 33.94073 -118.38095 93 ft 19 kts 82°
2026-05-07 20:39 33.94029 -118.37999 93 ft 14 kts 166°
2026-05-07 20:40 33.93979 -118.38070 93 ft 14 kts 262°
2026-05-07 20:40 33.93952 -118.38331 100 ft 61 kts 263°
2026-05-07 20:40 33.93873 -118.39097 95 ft 122 kts 263°
2026-05-07 20:40 33.93748 -118.40314 103 ft 168 kts 263°
2026-05-07 20:41 33.93598 -118.41753 530 ft 178 kts 263°
2026-05-07 20:41 33.93425 -118.43242 1155 ft 182 kts 262°
2026-05-07 20:41 33.93263 -118.44775 1834 ft 185 kts 262°
2026-05-07 20:41 33.92861 -118.46294 2094 ft 201 kts 240°
2026-05-07 20:42 33.91980 -118.47709 2215 ft 222 kts 232°
2026-05-07 20:42 33.90965 -118.49247 2348 ft 246 kts 232°
2026-05-07 20:42 33.89840 -118.50894 2742 ft 260 kts 231°
2026-05-07 20:42 33.88657 -118.52577 3329 ft 265 kts 231°
2026-05-07 20:43 33.87406 -118.54217 3947 ft 268 kts 221°
2026-05-07 20:43 33.85792 -118.55354 4570 ft 273 kts 201°
2026-05-07 20:43 33.83912 -118.55757 5172 ft 278 kts 181°
2026-05-07 20:43 33.81986 -118.55409 5769 ft 282 kts 169°
2026-05-07 20:44 33.80062 -118.54884 6384 ft 284 kts 168°
2026-05-07 20:44 33.78130 -118.54358 6966 ft 286 kts 168°
2026-05-07 20:44 33.76175 -118.53828 7515 ft 290 kts 168°
2026-05-07 20:44 33.74199 -118.53293 8100 ft 292 kts 167°
2026-05-07 20:45 33.72240 -118.52637 8686 ft 294 kts 156°
2026-05-07 20:45 33.70491 -118.51366 9263 ft 295 kts 137°
2026-05-07 20:45 33.69136 -118.49526 9880 ft 294 kts 120°
2026-05-07 20:45 33.68285 -118.47301 10398 ft 296 kts 108°
2026-05-07 20:46 33.67578 -118.44884 10526 ft 316 kts 108°
2026-05-07 20:46 33.66827 -118.42320 10648 ft 335 kts 108°
2026-05-07 20:46 33.66031 -118.39607 10770 ft 353 kts 108°
2026-05-07 20:46 33.65252 -118.36977 10977 ft 365 kts 108°
2026-05-07 20:47 33.64604 -118.34064 11429 ft 367 kts 97°
2026-05-07 20:47 33.64442 -118.31008 11972 ft 368 kts 89°
2026-05-07 20:47 33.64449 -118.27924 12525 ft 371 kts 89°
2026-05-07 20:47 33.64457 -118.24820 13090 ft 373 kts 89°
2026-05-07 20:48 33.64461 -118.21702 13655 ft 375 kts 89°
2026-05-07 20:48 33.64462 -118.18572 14167 ft 377 kts 89°
2026-05-07 20:48 33.64461 -118.15412 14658 ft 379 kts 89°
2026-05-07 20:48 33.64459 -118.12236 15165 ft 382 kts 89°
2026-05-07 20:49 33.64457 -118.09045 15671 ft 384 kts 89°
2026-05-07 20:49 33.64456 -118.05817 16170 ft 387 kts 88°
2026-05-07 20:49 33.64453 -118.02580 16680 ft 389 kts 88°
2026-05-07 20:49 33.64449 -117.99329 17174 ft 391 kts 88°
2026-05-07 20:50 33.64445 -117.96046 17678 ft 394 kts 88°
2026-05-07 20:50 33.64442 -117.92774 18165 ft 397 kts 88°
2026-05-07 20:50 33.64436 -117.89447 18586 ft 400 kts 88°
2026-05-07 20:50 33.64423 -117.86104 18990 ft 403 kts 88°
2026-05-07 20:51 33.64409 -117.82731 19386 ft 405 kts 88°
2026-05-07 20:51 33.64213 -117.79335 19764 ft 410 kts 97°
2026-05-07 20:51 33.63538 -117.75987 20132 ft 415 kts 104°
2026-05-07 20:51 33.62717 -117.72655 20499 ft 418 kts 104°
2026-05-07 20:52 33.61905 -117.69343 20857 ft 420 kts 104°
2026-05-07 20:52 33.61077 -117.65964 21214 ft 423 kts 104°
2026-05-07 20:52 33.60247 -117.62575 21561 ft 425 kts 104°
2026-05-07 20:52 33.59407 -117.59157 21894 ft 428 kts 104°
2026-05-07 20:53 33.58558 -117.55721 22226 ft 431 kts 104°
2026-05-07 20:53 33.57705 -117.52269 22569 ft 433 kts 104°
2026-05-07 20:53 33.56844 -117.48801 22896 ft 435 kts 104°
2026-05-07 20:53 33.55972 -117.45311 23249 ft 438 kts 104°
2026-05-07 20:54 33.55096 -117.41804 23563 ft 440 kts 104°
2026-05-07 20:54 33.54215 -117.38281 23833 ft 443 kts 104°
2026-05-07 20:54 33.53334 -117.34742 24110 ft 445 kts 104°
2026-05-07 20:54 33.52432 -117.31130 24410 ft 447 kts 104°
2026-05-07 20:55 33.51539 -117.27560 24700 ft 448 kts 104°
2026-05-07 20:55 33.50761 -117.23990 24978 ft 448 kts 98°
2026-05-07 20:55 33.50429 -117.20281 25239 ft 447 kts 89°
2026-05-07 20:55 33.50387 -117.16557 25527 ft 448 kts 88°
2026-05-07 20:56 33.50347 -117.12818 25817 ft 449 kts 88°
2026-05-07 20:56 33.50303 -117.09074 26082 ft 451 kts 88°
2026-05-07 20:56 33.50252 -117.05313 26337 ft 452 kts 89°
2026-05-07 20:56 33.50196 -117.01536 26599 ft 454 kts 89°
2026-05-07 20:57 33.50139 -116.97746 26852 ft 455 kts 89°
2026-05-07 20:57 33.50083 -116.93953 27108 ft 457 kts 89°
2026-05-07 20:57 33.50024 -116.90139 27370 ft 459 kts 89°
2026-05-07 20:57 33.49963 -116.86303 27616 ft 460 kts 88°
2026-05-07 20:58 33.49900 -116.82465 27967 ft 459 kts 88°
2026-05-07 20:58 33.49838 -116.78645 28340 ft 458 kts 88°
2026-05-07 20:58 33.49777 -116.74835 28705 ft 457 kts 88°
2026-05-07 20:58 33.49716 -116.71037 29050 ft 456 kts 88°
2026-05-07 20:59 33.49655 -116.67241 29408 ft 455 kts 88°
2026-05-07 20:59 33.49592 -116.63450 29766 ft 454 kts 88°
2026-05-07 20:59 33.49526 -116.59665 30088 ft 454 kts 88°
2026-05-07 20:59 33.49459 -116.55891 30434 ft 452 kts 88°
2026-05-07 21:00 33.49390 -116.52143 30761 ft 450 kts 88°
2026-05-07 21:00 33.49321 -116.48389 31038 ft 449 kts 88°
2026-05-07 21:00 33.49252 -116.44664 31350 ft 447 kts 88°
2026-05-07 21:00 33.49183 -116.40945 31652 ft 445 kts 88°
2026-05-07 21:01 33.49119 -116.37241 31941 ft 443 kts 88°
2026-05-07 21:01 33.49062 -116.33556 32178 ft 443 kts 88°
2026-05-07 21:01 33.49013 -116.29875 32450 ft 442 kts 88°
2026-05-07 21:01 33.48964 -116.26242 32738 ft 441 kts 88°
2026-05-07 21:02 33.48914 -116.22572 32881 ft 440 kts 88°
2026-05-07 21:02 33.48798 -116.15269 32904 ft 438 kts 88°
2026-05-07 21:03 33.48673 -116.07971 32905 ft 438 kts 88°
2026-05-07 21:03 33.49397 -116.00814 32908 ft 431 kts 71°
2026-05-07 21:04 33.51352 -115.94038 32920 ft 430 kts 68°
2026-05-07 21:04 33.53331 -115.87276 32920 ft 429 kts 68°
2026-05-07 21:05 33.55310 -115.80503 32924 ft 431 kts 68°
2026-05-07 21:05 33.57286 -115.73720 32932 ft 431 kts 68°
2026-05-07 21:06 33.59256 -115.66919 32933 ft 431 kts 68°
2026-05-07 21:06 33.61190 -115.60154 32933 ft 432 kts 72°
2026-05-07 21:06 33.61691 -115.56599 32936 ft 436 kts 85°
2026-05-07 21:07 33.61641 -115.52943 32938 ft 439 kts 88°
2026-05-07 21:07 33.61459 -115.45623 32932 ft 439 kts 88°
2026-05-07 21:08 33.61284 -115.38299 32929 ft 439 kts 88°
2026-05-07 21:08 33.61108 -115.30969 32941 ft 439 kts 88°
2026-05-07 21:09 33.60923 -115.23673 32923 ft 437 kts 88°
2026-05-07 21:09 33.60730 -115.16380 32926 ft 437 kts 88°
2026-05-07 21:10 33.60535 -115.09083 32928 ft 437 kts 88°
2026-05-07 21:10 33.60337 -115.01796 32933 ft 437 kts 88°
2026-05-07 21:11 33.60129 -114.94526 32924 ft 435 kts 88°
2026-05-07 21:11 33.59820 -114.83654 32925 ft 435 kts 88°
2026-05-07 21:12 33.59602 -114.76408 32926 ft 435 kts 88°
2026-05-07 21:12 33.59135 -114.69156 32925 ft 437 kts 92°
2026-05-07 21:13 33.58417 -114.61949 32924 ft 438 kts 93°
2026-05-07 21:13 33.57683 -114.54699 32924 ft 437 kts 92°
2026-05-07 21:14 33.57019 -114.47458 32921 ft 437 kts 92°
2026-05-07 21:14 33.56381 -114.40211 32920 ft 437 kts 92°
2026-05-07 21:15 33.55731 -114.32973 32917 ft 436 kts 92°
2026-05-07 21:15 33.55065 -114.25745 32930 ft 436 kts 92°
2026-05-07 21:16 33.54506 -114.19733 32920 ft 436 kts 92°
2026-05-07 21:16 33.53834 -114.12498 32925 ft 436 kts 92°
2026-05-07 21:17 33.53052 -114.04096 32918 ft 435 kts 92°
2026-05-07 21:17 33.52477 -113.98067 32933 ft 434 kts 92°
2026-05-07 21:18 33.51792 -113.90876 32950 ft 435 kts 92°
2026-05-07 21:18 33.51112 -113.83682 32958 ft 434 kts 92°
2026-05-07 21:19 33.50420 -113.76488 32973 ft 435 kts 92°
2026-05-07 21:19 33.49722 -113.69302 32981 ft 433 kts 92°
2026-05-07 21:20 33.49033 -113.62130 32985 ft 433 kts 92°
2026-05-07 21:20 33.48340 -113.54956 32986 ft 433 kts 92°
2026-05-07 21:21 33.47633 -113.47782 32976 ft 433 kts 92°
2026-05-07 21:21 33.46924 -113.40664 32920 ft 433 kts 92°
2026-05-07 21:22 33.45728 -113.33583 32913 ft 440 kts 105°
2026-05-07 21:22 33.43168 -113.26868 32908 ft 444 kts 110°
2026-05-07 21:23 33.40540 -113.20180 32907 ft 444 kts 109°
2026-05-07 21:23 33.37917 -113.13486 32901 ft 444 kts 109°
2026-05-07 21:24 33.35281 -113.06807 32897 ft 444 kts 110°
2026-05-07 21:24 33.32635 -113.00148 32908 ft 444 kts 110°
2026-05-07 21:25 33.29988 -112.93484 32928 ft 444 kts 109°
2026-05-07 21:25 33.27327 -112.86815 32916 ft 445 kts 110°
2026-05-07 21:26 33.24660 -112.80135 32915 ft 445 kts 110°
2026-05-07 21:26 33.21995 -112.73453 32912 ft 445 kts 110°
2026-05-07 21:27 33.19336 -112.66785 32910 ft 445 kts 110°
2026-05-07 21:27 33.16660 -112.60113 32901 ft 445 kts 110°
2026-05-07 21:28 33.13980 -112.53458 32896 ft 445 kts 110°
2026-05-07 21:28 33.11293 -112.46787 32895 ft 446 kts 110°
2026-05-07 21:29 33.08613 -112.40139 32889 ft 444 kts 110°
2026-05-07 21:29 33.05933 -112.33515 32893 ft 443 kts 110°
2026-05-07 21:30 33.03259 -112.26900 32885 ft 443 kts 110°
2026-05-07 21:30 33.00575 -112.20282 32890 ft 443 kts 110°
2026-05-07 21:31 32.97882 -112.13678 32883 ft 443 kts 110°
2026-05-07 21:31 32.95196 -112.07090 32879 ft 441 kts 110°
2026-05-07 21:32 32.92523 -112.00507 32886 ft 441 kts 110°
2026-05-07 21:32 32.89856 -111.93980 32885 ft 442 kts 110°
2026-05-07 21:33 32.87768 -111.87214 32882 ft 433 kts 99°
2026-05-07 21:33 32.86243 -111.80289 32877 ft 433 kts 99°
2026-05-07 21:34 32.84694 -111.73351 32880 ft 434 kts 100°
2026-05-07 21:34 32.83138 -111.66406 32882 ft 434 kts 100°
2026-05-07 21:35 32.81587 -111.59470 32878 ft 434 kts 100°
2026-05-07 21:35 32.80033 -111.52507 32880 ft 437 kts 101°
2026-05-07 21:36 32.78464 -111.45519 32897 ft 438 kts 101°
2026-05-07 21:36 32.76886 -111.38521 32904 ft 438 kts 101°
2026-05-07 21:37 32.75304 -111.31533 32918 ft 438 kts 101°
2026-05-07 21:37 32.73717 -111.24545 32916 ft 438 kts 101°
2026-05-07 21:38 32.72128 -111.17553 32907 ft 438 kts 101°
2026-05-07 21:38 32.70550 -111.10607 32904 ft 439 kts 101°
2026-05-07 21:39 32.68952 -111.03601 32892 ft 440 kts 102°
2026-05-07 21:39 32.67341 -110.96583 32882 ft 440 kts 102°
2026-05-07 21:40 32.65719 -110.89551 32873 ft 443 kts 102°
2026-05-07 21:40 32.64090 -110.82496 32876 ft 444 kts 102°
2026-05-07 21:41 32.62458 -110.75431 32882 ft 444 kts 103°
2026-05-07 21:41 32.60824 -110.68359 32877 ft 445 kts 103°
2026-05-07 21:42 32.59174 -110.61277 32881 ft 445 kts 103°
2026-05-07 21:42 32.57537 -110.54255 32889 ft 445 kts 103°
2026-05-07 21:43 32.55881 -110.47180 32870 ft 445 kts 103°
2026-05-07 21:43 32.54224 -110.40106 32891 ft 446 kts 104°
2026-05-07 21:44 32.52557 -110.33019 32893 ft 446 kts 104°
2026-05-07 21:44 32.50881 -110.25906 32901 ft 449 kts 105°
2026-05-07 21:45 32.49193 -110.18774 32894 ft 450 kts 105°
2026-05-07 21:45 32.47497 -110.11642 32888 ft 451 kts 106°
2026-05-07 21:46 32.45790 -110.04473 32898 ft 452 kts 107°
2026-05-07 21:46 32.44087 -109.97303 32905 ft 453 kts 106°
2026-05-07 21:47 32.42368 -109.90131 32899 ft 453 kts 107°
2026-05-07 21:47 32.40652 -109.82964 32898 ft 452 kts 106°
2026-05-07 21:48 32.38935 -109.75790 32895 ft 455 kts 107°
2026-05-07 21:48 32.37203 -109.68581 32914 ft 456 kts 108°
2026-05-07 21:49 32.35455 -109.61341 32881 ft 458 kts 109°
2026-05-07 21:49 32.33692 -109.54088 32886 ft 459 kts 109°
2026-05-07 21:50 32.31925 -109.46836 32885 ft 459 kts 109°
2026-05-07 21:50 32.30162 -109.39618 32882 ft 462 kts 110°
2026-05-07 21:51 32.28382 -109.32324 32880 ft 462 kts 110°
2026-05-07 21:51 32.26786 -109.24946 32877 ft 466 kts 101°
2026-05-07 21:52 32.26084 -109.17305 32879 ft 467 kts 100°
2026-05-07 21:52 32.25354 -109.09665 32861 ft 470 kts 101°
2026-05-07 21:53 32.24604 -109.01940 32881 ft 475 kts 101°
2026-05-07 21:53 32.23855 -108.94180 32881 ft 475 kts 101°
2026-05-07 21:54 32.23096 -108.86404 32878 ft 480 kts 102°
2026-05-07 21:54 32.22327 -108.78577 32876 ft 483 kts 102°
2026-05-07 21:55 32.21942 -108.74632 33022 ft 485 kts 102°
2026-05-07 21:55 32.21554 -108.70665 33026 ft 487 kts 102°
2026-05-07 21:55 32.20774 -108.62712 33015 ft 488 kts 102°
2026-05-07 21:56 32.19984 -108.54756 32988 ft 488 kts 102°
2026-05-07 21:56 32.19185 -108.46807 32959 ft 488 kts 102°
2026-05-07 21:57 32.18381 -108.38844 32928 ft 490 kts 102°
2026-05-07 21:57 32.17571 -108.30840 32888 ft 491 kts 102°
2026-05-07 21:58 32.16755 -108.22834 32887 ft 491 kts 103°
2026-05-07 21:58 32.15929 -108.14828 32888 ft 491 kts 103°
2026-05-07 21:59 32.15102 -108.06827 32885 ft 491 kts 103°
2026-05-07 21:59 32.14269 -107.98827 32882 ft 491 kts 103°
2026-05-07 22:00 32.13430 -107.90827 32885 ft 491 kts 103°
2026-05-07 22:00 32.12590 -107.82825 32882 ft 491 kts 103°
2026-05-07 22:01 32.12167 -107.78821 33034 ft 491 kts 103°
2026-05-07 22:01 32.11744 -107.74822 33029 ft 491 kts 103°
2026-05-07 22:01 32.10894 -107.66821 33019 ft 493 kts 103°
2026-05-07 22:02 32.10175 -107.60146 32984 ft 493 kts 103°
2026-05-07 22:02 32.09308 -107.52130 32954 ft 493 kts 103°
2026-05-07 22:03 32.08440 -107.44102 32921 ft 493 kts 103°
2026-05-07 22:03 32.07560 -107.36074 32883 ft 495 kts 104°
2026-05-07 22:04 32.06677 -107.28007 32879 ft 496 kts 104°
2026-05-07 22:04 32.05795 -107.19985 32902 ft 496 kts 104°
2026-05-07 22:05 32.04894 -107.11922 32929 ft 496 kts 104°
2026-05-07 22:05 32.03993 -107.03857 32937 ft 497 kts 105°
2026-05-07 22:06 32.03077 -106.95760 32955 ft 499 kts 105°
2026-05-07 22:06 32.02155 -106.87644 32950 ft 500 kts 105°
2026-05-07 22:07 32.01232 -106.79509 33023 ft 504 kts 106°
2026-05-07 22:07 32.00297 -106.71312 33031 ft 505 kts 105°
2026-05-07 22:08 31.99366 -106.63067 33028 ft 508 kts 106°
2026-05-07 22:08 31.98422 -106.54808 33008 ft 508 kts 106°
2026-05-07 22:09 31.97462 -106.46560 33007 ft 508 kts 106°
2026-05-07 22:09 31.96491 -106.38318 33016 ft 508 kts 106°
2026-05-07 22:10 31.95516 -106.30058 33015 ft 510 kts 106°
2026-05-07 22:10 31.95080 -106.21640 32989 ft 519 kts 98°
2026-05-07 22:11 31.94955 -106.13192 32961 ft 519 kts 98°
2026-05-07 22:11 31.94819 -106.04696 32940 ft 519 kts 98°
2026-05-07 22:12 31.94678 -105.96194 32913 ft 520 kts 99°
2026-05-07 22:12 31.94522 -105.87673 32930 ft 521 kts 98°
2026-05-07 22:13 31.94354 -105.79147 32912 ft 521 kts 98°
2026-05-07 22:13 31.94193 -105.70624 32916 ft 521 kts 98°
2026-05-07 22:14 31.94028 -105.62098 32906 ft 521 kts 98°
2026-05-07 22:14 31.93854 -105.53543 32920 ft 523 kts 98°
2026-05-07 22:15 31.93683 -105.44978 32917 ft 523 kts 99°
2026-05-07 22:15 31.93504 -105.36403 32917 ft 524 kts 99°
2026-05-07 22:16 31.93312 -105.27837 32899 ft 524 kts 99°
2026-05-07 22:16 31.93118 -105.19231 32921 ft 526 kts 99°
2026-05-07 22:17 31.92934 -105.10670 32926 ft 526 kts 99°
2026-05-07 22:17 31.92741 -105.02058 32943 ft 526 kts 99°
2026-05-07 22:18 31.92439 -104.89141 32954 ft 527 kts 99°
2026-05-07 22:19 31.92236 -104.80513 32960 ft 528 kts 99°
2026-05-07 22:19 31.92022 -104.71874 32958 ft 528 kts 99°
2026-05-07 22:20 31.91808 -104.63233 32973 ft 528 kts 99°
2026-05-07 22:20 31.91584 -104.54591 32971 ft 528 kts 99°
2026-05-07 22:21 31.91347 -104.45951 32980 ft 528 kts 99°
2026-05-07 22:21 31.91109 -104.37314 32980 ft 528 kts 99°
2026-05-07 22:22 31.90873 -104.28669 32975 ft 528 kts 99°
2026-05-07 22:22 31.90623 -104.20089 32967 ft 528 kts 99°
2026-05-07 22:23 31.90361 -104.11437 32977 ft 529 kts 99°
2026-05-07 22:23 31.90106 -104.02781 32969 ft 529 kts 99°
2026-05-07 22:24 31.89842 -103.94137 32969 ft 529 kts 99°
2026-05-07 22:24 31.89558 -103.85480 32947 ft 529 kts 100°
2026-05-07 22:25 31.89271 -103.76808 32965 ft 530 kts 99°
2026-05-07 22:25 31.88992 -103.68136 32966 ft 530 kts 99°
2026-05-07 22:26 31.88710 -103.59443 32970 ft 530 kts 100°
2026-05-07 22:26 31.88417 -103.50830 32965 ft 530 kts 100°
2026-05-07 22:27 31.88110 -103.42154 32963 ft 531 kts 100°
2026-05-07 22:27 31.87798 -103.33468 32970 ft 531 kts 100°
2026-05-07 22:28 31.87594 -103.24772 32965 ft 537 kts 94°
2026-05-07 22:28 31.88617 -103.15972 32970 ft 544 kts 87°
2026-05-07 22:29 31.89784 -103.07159 32976 ft 545 kts 87°
2026-05-07 22:29 31.90939 -102.98343 32978 ft 545 kts 87°
2026-05-07 22:30 31.92095 -102.89519 32976 ft 545 kts 87°
2026-05-07 22:30 31.93248 -102.80687 32979 ft 545 kts 87°
2026-05-07 22:31 31.94401 -102.71864 33019 ft 545 kts 87°
2026-05-07 22:31 31.95552 -102.63038 33034 ft 545 kts 87°
2026-05-07 22:32 31.96684 -102.54275 33056 ft 545 kts 87°
2026-05-07 22:32 31.97812 -102.45445 33075 ft 545 kts 87°
2026-05-07 22:33 31.98936 -102.36613 33076 ft 546 kts 87°
2026-05-07 22:33 32.00058 -102.27761 33062 ft 546 kts 87°
2026-05-07 22:34 32.01169 -102.18917 33060 ft 545 kts 87°
2026-05-07 22:34 32.02280 -102.10075 33068 ft 546 kts 87°
2026-05-07 22:35 32.03377 -102.01247 33064 ft 546 kts 87°
2026-05-07 22:35 32.04471 -101.92393 33048 ft 546 kts 87°
2026-05-07 22:36 32.05558 -101.83534 33023 ft 546 kts 87°
2026-05-07 22:36 32.06642 -101.74674 33018 ft 546 kts 88°
2026-05-07 22:37 32.07714 -101.65818 33027 ft 546 kts 88°
2026-05-07 22:37 32.08781 -101.56955 33071 ft 546 kts 87°
2026-05-07 22:38 32.09855 -101.48067 33045 ft 547 kts 87°
2026-05-07 22:38 32.10924 -101.39181 33042 ft 547 kts 87°
2026-05-07 22:39 32.11985 -101.30286 33034 ft 547 kts 88°
2026-05-07 22:39 32.13023 -101.21437 32990 ft 549 kts 88°
2026-05-07 22:40 32.14056 -101.12517 32996 ft 549 kts 88°
2026-05-07 22:40 32.15096 -101.03588 32993 ft 549 kts 88°
2026-05-07 22:41 32.16129 -100.94725 32994 ft 549 kts 88°
2026-05-07 22:41 32.17158 -100.85799 33002 ft 549 kts 88°
2026-05-07 22:42 32.18180 -100.76866 32997 ft 549 kts 88°
2026-05-07 22:42 32.19196 -100.67929 33004 ft 549 kts 88°
2026-05-07 22:43 32.20217 -100.58995 33001 ft 549 kts 88°
2026-05-07 22:43 32.21231 -100.50054 32998 ft 548 kts 88°
2026-05-07 22:44 32.22222 -100.41125 33004 ft 548 kts 88°
2026-05-07 22:44 32.23208 -100.32185 33014 ft 548 kts 88°
2026-05-07 22:45 32.24183 -100.23308 33004 ft 548 kts 88°
2026-05-07 22:45 32.25165 -100.14355 33009 ft 550 kts 88°
2026-05-07 22:46 32.26140 -100.05391 33012 ft 550 kts 88°
2026-05-07 22:46 32.27109 -99.96431 33007 ft 550 kts 88°
2026-05-07 22:47 32.28056 -99.87452 33007 ft 549 kts 89°
2026-05-07 22:47 32.28693 -99.78497 33022 ft 545 kts 93°
2026-05-07 22:48 32.29051 -99.69557 33026 ft 544 kts 94°
2026-05-07 22:48 32.29401 -99.60618 33037 ft 545 kts 94°
2026-05-07 22:49 32.29768 -99.53176 33045 ft 545 kts 93°
2026-05-07 22:49 32.30264 -99.44234 33044 ft 545 kts 92°
2026-05-07 22:50 32.30744 -99.35285 33048 ft 545 kts 92°
2026-05-07 22:50 32.30974 -99.30807 32891 ft 544 kts 92°
2026-05-07 22:50 32.31193 -99.26323 32640 ft 547 kts 92°
2026-05-07 22:50 32.31410 -99.21840 32387 ft 545 kts 92°
2026-05-07 22:51 32.31625 -99.17370 31962 ft 546 kts 92°
2026-05-07 22:51 32.31838 -99.12828 30760 ft 559 kts 92°
2026-05-07 22:51 32.32055 -99.08210 29776 ft 564 kts 91°
2026-05-07 22:51 32.32276 -99.03534 28711 ft 568 kts 90°
2026-05-07 22:52 32.32496 -98.98921 28454 ft 555 kts 90°
2026-05-07 22:52 32.32715 -98.94490 28190 ft 538 kts 90°
2026-05-07 22:52 32.32932 -98.90132 27319 ft 524 kts 90°
2026-05-07 22:52 32.33135 -98.85969 26411 ft 512 kts 89°
2026-05-07 22:53 32.33332 -98.81820 25677 ft 495 kts 89°
2026-05-07 22:53 32.33516 -98.77844 25491 ft 478 kts 89°
2026-05-07 22:53 32.33695 -98.73914 24938 ft 478 kts 89°
2026-05-07 22:53 32.33870 -98.69986 24409 ft 478 kts 88°
2026-05-07 22:54 32.34041 -98.66058 23875 ft 478 kts 88°
2026-05-07 22:54 32.34212 -98.62133 23291 ft 477 kts 88°
2026-05-07 22:54 32.34382 -98.58281 22784 ft 474 kts 88°
2026-05-07 22:54 32.34555 -98.54397 22239 ft 472 kts 88°
2026-05-07 22:55 32.34725 -98.50557 21710 ft 464 kts 88°
2026-05-07 22:55 32.34890 -98.46783 21139 ft 456 kts 88°
2026-05-07 22:55 32.35049 -98.43057 20615 ft 451 kts 88°
2026-05-07 22:55 32.35206 -98.39378 20089 ft 446 kts 88°
2026-05-07 22:56 32.35361 -98.35727 19573 ft 441 kts 88°
2026-05-07 22:56 32.35513 -98.32124 19062 ft 436 kts 88°
2026-05-07 22:56 32.35659 -98.28607 18573 ft 432 kts 88°
2026-05-07 22:56 32.35804 -98.25076 18032 ft 427 kts 88°
2026-05-07 22:57 32.35946 -98.21590 17483 ft 422 kts 88°
2026-05-07 22:57 32.36086 -98.18135 17008 ft 419 kts 88°
2026-05-07 22:57 32.36226 -98.14707 16524 ft 417 kts 88°
2026-05-07 22:57 32.36363 -98.11302 16049 ft 413 kts 88°
2026-05-07 22:58 32.36496 -98.07917 15569 ft 410 kts 88°
2026-05-07 22:58 32.36631 -98.04552 15090 ft 408 kts 87°
2026-05-07 22:58 32.36765 -98.01215 14624 ft 405 kts 87°
2026-05-07 22:58 32.36895 -97.97905 14313 ft 398 kts 87°
2026-05-07 22:59 32.37021 -97.94698 14192 ft 384 kts 87°
2026-05-07 22:59 32.37143 -97.91569 13919 ft 377 kts 87°
2026-05-07 22:59 32.37263 -97.88488 13555 ft 373 kts 87°
2026-05-07 22:59 32.37385 -97.85439 13131 ft 370 kts 88°
2026-05-07 23:00 32.37505 -97.82437 12706 ft 365 kts 88°
2026-05-07 23:00 32.37624 -97.79457 12289 ft 360 kts 88°
2026-05-07 23:00 32.37741 -97.76516 11777 ft 356 kts 88°
2026-05-07 23:00 32.37854 -97.73623 11256 ft 349 kts 89°
2026-05-07 23:01 32.37962 -97.70785 10806 ft 342 kts 89°
2026-05-07 23:01 32.38065 -97.67997 10376 ft 336 kts 90°
2026-05-07 23:01 32.38248 -97.65283 10198 ft 326 kts 81°
2026-05-07 23:01 32.38912 -97.62767 10051 ft 318 kts 65°
2026-05-07 23:02 32.40063 -97.60552 9761 ft 315 kts 50°
2026-05-07 23:02 32.41585 -97.58702 9382 ft 313 kts 42°
2026-05-07 23:02 32.43157 -97.56925 8996 ft 313 kts 42°
2026-05-07 23:02 32.44727 -97.55142 8617 ft 312 kts 42°
2026-05-07 23:03 32.46255 -97.53332 8280 ft 310 kts 49°
2026-05-07 23:03 32.47376 -97.51221 7936 ft 308 kts 66°
2026-05-07 23:03 32.47990 -97.48799 7523 ft 306 kts 83°
2026-05-07 23:03 32.48230 -97.46310 7104 ft 303 kts 84°
2026-05-07 23:04 32.48460 -97.43848 6725 ft 299 kts 84°
2026-05-07 23:04 32.48689 -97.41406 6386 ft 296 kts 84°
2026-05-07 23:04 32.48913 -97.39019 6022 ft 292 kts 84°
2026-05-07 23:04 32.49128 -97.36682 5659 ft 288 kts 83°
2026-05-07 23:05 32.49343 -97.34347 5329 ft 283 kts 83°
2026-05-07 23:05 32.49554 -97.32069 5181 ft 271 kts 82°
2026-05-07 23:05 32.49757 -97.29899 5009 ft 261 kts 82°
2026-05-07 23:05 32.49960 -97.27786 4868 ft 254 kts 81°
2026-05-07 23:06 32.50227 -97.25734 4800 ft 252 kts 78°
2026-05-07 23:06 32.50540 -97.23685 4740 ft 252 kts 78°
2026-05-07 23:06 32.50863 -97.21647 4677 ft 251 kts 78°
2026-05-07 23:06 32.51185 -97.19615 4616 ft 251 kts 78°
2026-05-07 23:07 32.51507 -97.17585 4566 ft 251 kts 77°
2026-05-07 23:07 32.51826 -97.15550 4507 ft 251 kts 78°
2026-05-07 23:07 32.52138 -97.13525 4442 ft 250 kts 78°
2026-05-07 23:07 32.52661 -97.11604 4338 ft 242 kts 58°
2026-05-07 23:08 32.53775 -97.10149 4216 ft 239 kts 34°
2026-05-07 23:08 32.55151 -97.09038 4088 ft 239 kts 33°
2026-05-07 23:08 32.56529 -97.07926 3964 ft 239 kts 34°
2026-05-07 23:08 32.57937 -97.06892 3986 ft 239 kts 26°
2026-05-07 23:09 32.59480 -97.06136 4015 ft 239 kts 17°
2026-05-07 23:09 32.61099 -97.05702 3910 ft 239 kts
2026-05-07 23:09 32.62764 -97.05598 3787 ft 239 kts
2026-05-07 23:09 32.64428 -97.05596 3662 ft 239 kts
2026-05-07 23:10 32.66038 -97.05595 3555 ft 235 kts
2026-05-07 23:10 32.67636 -97.05588 3461 ft 227 kts
2026-05-07 23:10 32.69195 -97.05580 3336 ft 224 kts
2026-05-07 23:10 32.70744 -97.05572 3224 ft 216 kts
2026-05-07 23:11 32.72175 -97.05565 3151 ft 195 kts
2026-05-07 23:11 32.73474 -97.05558 3092 ft 180 kts
2026-05-07 23:11 32.74707 -97.05552 3048 ft 175 kts
2026-05-07 23:11 32.75899 -97.05545 2921 ft 172 kts
2026-05-07 23:12 32.77109 -97.05539 2717 ft 171 kts
2026-05-07 23:12 32.78279 -97.05533 2530 ft 170 kts
2026-05-07 23:12 32.79460 -97.05527 2306 ft 163 kts
2026-05-07 23:12 32.80569 -97.05521 2045 ft 157 kts
2026-05-07 23:13 32.81657 -97.05516 1830 ft 156 kts
2026-05-07 23:13 32.82744 -97.05510 1626 ft 156 kts
2026-05-07 23:13 32.83825 -97.05504 1422 ft 155 kts
2026-05-07 23:13 32.84909 -97.05499 1218 ft 156 kts
2026-05-07 23:14 32.85982 -97.05495 1016 ft 156 kts
2026-05-07 23:14 32.87073 -97.05492 817 ft 159 kts
2026-05-07 23:14 32.88174 -97.05485 608 ft 158 kts
2026-05-07 23:14 32.89143 -97.05476 596 ft 120 kts
2026-05-07 23:15 32.89809 -97.05471 614 ft 74 kts
2026-05-07 23:15 32.90221 -97.05439 612 ft 43 kts 22°
2026-05-07 23:15 32.90420 -97.05311 602 ft 20 kts 29°
2026-05-07 23:15 32.90473 -97.05225 601 ft 5 kts 82°
2026-05-07 23:16 32.90473 -97.05223 601 ft 1 kts 82°
2026-05-07 23:16 32.90473 -97.05221 601 ft 0 kts 83°
2026-05-07 23:18 32.90474 -97.05215 601 ft 2 kts 85°
2026-05-07 23:18 32.90474 -97.05167 600 ft 12 kts 91°
2026-05-07 23:18 32.90472 -97.05035 598 ft 18 kts 90°
2026-05-07 23:19 32.90472 -97.04889 599 ft 18 kts 90°
2026-05-07 23:19 32.90489 -97.04771 598 ft 13 kts 37°
2026-05-07 23:19 32.90602 -97.04760 597 ft 19 kts
2026-05-07 23:19 32.90740 -97.04760 598 ft 20 kts
2026-05-07 23:20 32.90872 -97.04757 600 ft 16 kts
2026-05-07 23:20 32.90909 -97.04641 599 ft 21 kts 92°
2026-05-07 23:20 32.90908 -97.04457 600 ft 21 kts 90°
2026-05-07 23:20 32.90907 -97.04293 609 ft 20 kts 90°
2026-05-07 23:21 32.90907 -97.04121 609 ft 21 kts 90°
2026-05-07 23:21 32.90906 -97.03944 609 ft 22 kts 90°
2026-05-07 23:21 32.90904 -97.03749 599 ft 27 kts 90°
2026-05-07 23:21 32.90904 -97.03496 586 ft 32 kts 90°
2026-05-07 23:22 32.90888 -97.03324 586 ft 16 kts 135°
2026-05-07 23:22 32.90776 -97.03309 585 ft 17 kts 180°
2026-05-07 23:22 32.90653 -97.03309 585 ft 18 kts 179°
2026-05-07 23:22 32.90523 -97.03310 585 ft 19 kts 180°
2026-05-07 23:23 32.90392 -97.03312 585 ft 16 kts 181°
2026-05-07 23:23 32.90331 -97.03364 586 ft 12 kts 260°
2026-05-07 23:23 32.90311 -97.03455 587 ft 12 kts 223°
2026-05-07 23:23 32.90245 -97.03504 587 ft 9 kts 210°
2026-05-07 23:24 32.90235 -97.03545 587 ft 4 kts 297°
2026-05-07 23:24 32.90250 -97.03567 587 ft 2 kts 308°
2026-05-07 23:24 32.90256 -97.03577 587 ft 1 kts 309°
2026-05-07 23:24 32.90257 -97.03578 587 ft 0 kts 309°